Zurück zum Katalog

STARLINK-35338

AktivKommunikationVLEO
NORAD 66250·PAYLOAD·🇺🇸 United States

Gestartet Oct 29, 2025 von Cape Canaveral Space Force Station

Loading…

Nächste Überflüge (nächste 24 Stunden)

TLE

AktuellSource: CelesTrak SupGP

Epoche: Sep 15, 2026, 04:01 UTC

1 66250C 25245S   26258.16784722  .00015204  00000+0  48885-3 0  2582
2 66250  53.1576 122.2528 0001421  81.4947  79.7793 15.31698797    10

Verfolge STARLINK-35338 in Echtzeit mit AllMySat

Download on the App Store